Regional Weather Roundup
Issued by NWS Newport/Morehead, NC

Current Version | Previous Version | Graphics & Text | Print | Product List | Glossary Off
Versions: 1 2 3 4 5 6 7 8 9 10 11 12 13 14 15 16 17 18 19 20 21 22 23 24 25 26 27 28 29 30 31 32 33 34 35 36 37 38 39 40 41 42 43 44 45 46 47 48 49 50

000
ASUS42 KMHX 221722
RWRMHX
WEATHER ROUNDUP FOR EASTERN NORTH CAROLINA
NATIONAL WEATHER SERVICE NEWPORT/MOREHEAD CITY NC
100 PM EDT TUE APR 22 2014

NOTE: "FAIR" INDICATES FEW OR NO CLOUDS BELOW 12,000 FEET
WITH NO SIGNIFICANT WEATHER AND/OR OBSTRUCTIONS TO VISIBILITY

NCZ015>017-031-032-045>047-102-103-221800-
NORTH COAST

CITY           SKY/WX    TMP DP  RH WIND       PRES   REMARKS
EDENTON        MOSUNNY   75  49  40 SW8       29.73F
ELIZABETH CITY MOSUNNY   74  53  48 S9        29.72F
KITTY HAWK     SUNNY     73  49  43 S5        29.73F
MANTEO         SUNNY     68  55  62 S12       29.74F

$$

NCZ045>047-081-094-103-104-221800-
CENTRAL COAST

CITY           SKY/WX    TMP DP  RH WIND       PRES   REMARKS
FRISCO         MOSUNNY   62  32  32 SW7       29.78F
SWANQUARTER      N/A     70 N/A N/A S6G13     29.74F

$$

NCZ095-097-098-100-101-221800-
SOUTHERN COAST

CITY           SKY/WX    TMP DP  RH WIND       PRES   REMARKS
BEAUFORT       MOSUNNY   68  52  56 SW14      29.78F
CEDAR ISLAND     N/A     72 N/A N/A S7G16     29.82S
JACKSONVILLE   MOSUNNY   77  46  33 W5        29.77F
NEWPORT          N/A     73  50  43 SW9         N/A
PINEY ISLAND   MOSUNNY   74  57  55 SW15      29.77F
WILMINGTON     SUNNY     78  46  32 SW13      29.78F


$$

NCZ011>013-027>030-043-044-078>080-089-090>093-098-221800-
COASTAL PLAIN

CITY           SKY/WX    TMP DP  RH WIND       PRES   REMARKS
AHOSKIE        SUNNY     76  48  36 S3        29.71F
CLINTON        SUNNY     79  52  39 W7        29.77F
ELIZABETHTOWN  SUNNY     78  48  34 S8        29.78F
GOLDSBORO      MOSUNNY   78  50  38 SW13      29.73F
GREENVILLE     SUNNY     77  50  38 SW9G17    29.77F
HAVELOCK       MOSUNNY   76  52  43 SW9       29.78F
KENANSVILLE    MOSUNNY   78  46  31 SW7       29.77F
KINSTON        MOSUNNY   79  46  31 SW13G20   29.76F
NEW BERN       SUNNY     77  49  37 SW7       29.78F
RICHLANDS      MOSUNNY   81  79  94 SW9G16    29.76F
ROANOKE RAPIDS NOT AVBL
ROCKY MOUNT    SUNNY     78  51  38 SW9       29.73F
WASHINGTON     SUNNY     78  45  30 SW10G20   29.73F
WHITEVILLE     SUNNY     78  49  35 SW7       29.78F

$$

AMZ130-135-150-152-154-156-158-170-250-252-270-ANZ085-086-088-633-658-670-221800-
MARINE OBSERVATIONS

STATION/POSITION TIME  TEMP    WIND        PRES    WAVE   SWELL
                       AIR SEA DIR/SP/G            HT/PER HT/PER
                 (UTC) (F)     (DEG/KT/KT) (MB)    (FT/S) (FT/S)
CHESAPEAKE LIGHT 1700   53      CALM  / 25 1006.3
BUOY 44014       1700   50 49  180/  8/ 10 1007.3    5/ 9   5/ 9
DUCK             1700   69 49  200/ 12/ 14 1005.8
2E DUCK          1700      53                N/A     4/ 8   2/11
OREGON INLET     1700   60 54  180/ 10/ 12 1007.4
BUOY 44095       1700      50                N/A     4/ 9   2/11
HATTERAS CG      1700   65 54  210/  8/ 11 1008.4
DIAMOND BUOY     1700   69 76  250/ 16/ 17 1008.3    5/ 9   5/ 9
CAPE LOOKOUT     1700   65     220/ 13/ 16 1008.8
BEAUFORT LAB     1700   67 58  220/  6/ 11 1008.0
30 SE NEW RIVER  1700   68 71  230/ 16/ 17 1009.5    4/ 9   3/ 9
5 SE WRIGHTSVILL 1700   63 60  210/ 14/ 16 1008.6
FRYING PAN BUOY  1700   67 67  240/ 16/ 17 1009.7    4/ 4   2/10
BUOY 41001       NOT AVBL
BUOY 41002       NOT AVBL
BUOY 41004       NOT AVBL

$$



USA.gov is the U.S. government's official web portal to all federal, state and local government web resources and services.